Time,TemperatureF,DewpointF,PressureIn,WindDirection,WindDirectionDegrees,WindSpeedMPH,WindSpeedGustMPH,Humidity,HourlyPrecipIn,Conditions,Clouds,dailyrainin,SoftwareType,DateUTC
2013-01-13 00:01:00,18.0,18.0,-100.00,North,-999,-999.0,-999.0,99,-99.99,,,-99.99,,2013-01-13 08:01:00,
2013-01-13 00:11:00,18.0,18.0,-100.00,North,-999,-999.0,-999.0,99,-99.99,,,-99.99,,2013-01-13 08:11:00,
2013-01-13 00:22:00,18.0,18.0,-100.00,North,-999,-999.0,-999.0,99,-99.99,,,-99.99,,2013-01-13 08:22:00,
2013-01-13 00:32:00,19.0,19.0,-100.00,North,-999,-999.0,-999.0,98,-99.99,,,0.00,,2013-01-13 08:32:00,
2013-01-13 00:42:00,19.0,19.0,-100.00,North,-999,-999.0,-999.0,98,-99.99,,,0.00,,2013-01-13 08:42:00,
2013-01-13 00:52:00,20.0,20.0,-100.00,North,-999,-999.0,-999.0,98,-99.99,,,-99.99,,2013-01-13 08:52:00,
2013-01-13 01:02:00,20.0,20.0,-100.00,North,-999,-999.0,-999.0,98,-99.99,,,-99.99,,2013-01-13 09:02:00,
2013-01-13 01:12:00,20.0,20.0,-100.00,North,-999,-999.0,-999.0,98,-99.99,,,-99.99,,2013-01-13 09:12:00,
2013-01-13 01:22:00,20.0,20.0,-100.00,North,-999,-999.0,-999.0,98,-99.99,,,-99.99,,2013-01-13 09:22:00,
2013-01-13 01:32:00,20.0,20.0,-100.00,North,-999,-999.0,-999.0,98,-99.99,,,-99.99,,2013-01-13 09:32:00,
2013-01-13 01:42:00,20.0,20.0,-100.00,North,-999,-999.0,-999.0,98,-99.99,,,-99.99,,2013-01-13 09:42:00,
2013-01-13 01:52:00,20.0,20.0,-100.00,North,-999,-999.0,-999.0,98,-99.99,,,-99.99,,2013-01-13 09:52:00,
2013-01-13 02:02:00,21.0,20.0,-100.00,North,-999,-999.0,-999.0,97,-99.99,,,-99.99,,2013-01-13 10:02:00,
2013-01-13 02:12:00,21.0,20.0,-100.00,North,-999,-999.0,-999.0,97,-99.99,,,-99.99,,2013-01-13 10:12:00,
2013-01-13 02:22:00,19.0,19.0,-100.00,North,-999,-999.0,-999.0,99,-99.99,,,-99.99,,2013-01-13 10:22:00,
2013-01-13 02:32:00,19.0,19.0,-100.00,North,-999,-999.0,-999.0,99,-99.99,,,-99.99,,2013-01-13 10:32:00,
2013-01-13 02:42:00,19.0,19.0,-100.00,North,-999,-999.0,-999.0,99,-99.99,,,-99.99,,2013-01-13 10:42:00,
2013-01-13 02:52:00,19.0,19.0,-100.00,North,-999,-999.0,-999.0,99,-99.99,,,-99.99,,2013-01-13 10:52:00,
2013-01-13 03:02:00,18.0,18.0,-100.00,North,-999,-999.0,-999.0,99,-99.99,,,-99.99,,2013-01-13 11:02:00,
2013-01-13 03:12:00,18.0,18.0,-100.00,North,-999,-999.0,-999.0,99,-99.99,,,-99.99,,2013-01-13 11:12:00,
2013-01-13 03:22:00,17.0,17.0,-100.00,North,-999,-999.0,-999.0,100,-99.99,,,-99.99,,2013-01-13 11:22:00,
2013-01-13 03:32:00,17.0,17.0,-100.00,North,-999,-999.0,-999.0,100,-99.99,,,-99.99,,2013-01-13 11:32:00,
2013-01-13 03:42:00,17.0,17.0,-100.00,North,-999,-999.0,-999.0,100,-99.99,,,-99.99,,2013-01-13 11:42:00,
2013-01-13 03:52:00,15.0,15.0,-100.00,North,-999,-999.0,-999.0,100,-99.99,,,-99.99,,2013-01-13 11:52:00,
2013-01-13 04:02:00,15.0,15.0,-100.00,North,-999,-999.0,-999.0,100,-99.99,,,-99.99,,2013-01-13 12:02:00,
2013-01-13 04:12:00,15.0,15.0,-100.00,North,-999,-999.0,-999.0,100,-99.99,,,-99.99,,2013-01-13 12:12:00,
2013-01-13 04:22:00,15.0,15.0,-100.00,North,-999,-999.0,-999.0,100,-99.99,,,-99.99,,2013-01-13 12:22:00,
2013-01-13 04:32:00,14.0,14.0,-100.00,North,-999,-999.0,-999.0,100,-99.99,,,-99.99,,2013-01-13 12:32:00,
2013-01-13 04:42:00,14.0,14.0,-100.00,North,-999,-999.0,-999.0,100,-99.99,,,-99.99,,2013-01-13 12:42:00,
2013-01-13 04:53:00,14.0,14.0,-100.00,North,-999,-999.0,-999.0,100,-99.99,,,-99.99,,2013-01-13 12:53:00,
2013-01-13 05:02:00,14.0,14.0,-100.00,North,-999,-999.0,-999.0,100,-99.99,,,-99.99,,2013-01-13 13:02:00,
2013-01-13 05:12:00,14.0,14.0,-100.00,North,-999,-999.0,-999.0,100,-99.99,,,-99.99,,2013-01-13 13:12:00,
2013-01-13 05:22:00,14.0,14.0,-100.00,North,-999,-999.0,-999.0,100,-99.99,,,-99.99,,2013-01-13 13:22:00,
2013-01-13 05:32:00,13.0,13.0,-100.00,North,-999,-999.0,-999.0,99,-99.99,,,-99.99,,2013-01-13 13:32:00,
2013-01-13 05:42:00,13.0,13.0,-100.00,North,-999,-999.0,-999.0,99,-99.99,,,-99.99,,2013-01-13 13:42:00,
2013-01-13 05:53:00,13.0,13.0,-100.00,North,-999,-999.0,-999.0,99,-99.99,,,-99.99,,2013-01-13 13:53:00,
2013-01-13 06:02:00,13.0,13.0,-100.00,North,-999,-999.0,-999.0,99,-99.99,,,-99.99,,2013-01-13 14:02:00,
2013-01-13 06:12:00,13.0,13.0,-100.00,North,-999,-999.0,-999.0,99,-99.99,,,-99.99,,2013-01-13 14:12:00,
2013-01-13 06:22:00,13.0,13.0,-100.00,North,-999,-999.0,-999.0,99,-99.99,,,-99.99,,2013-01-13 14:22:00,
2013-01-13 06:32:00,12.0,12.0,-100.00,North,-999,-999.0,-999.0,99,-99.99,,,-99.99,,2013-01-13 14:32:00,
2013-01-13 06:43:00,12.0,12.0,-100.00,North,-999,-999.0,-999.0,99,-99.99,,,-99.99,,2013-01-13 14:43:00,
2013-01-13 06:53:00,12.0,12.0,-100.00,North,-999,-999.0,-999.0,99,-99.99,,,-99.99,,2013-01-13 14:53:00,
2013-01-13 07:02:00,13.0,13.0,-100.00,North,-999,-999.0,-999.0,100,-99.99,,,-99.99,,2013-01-13 15:02:00,
2013-01-13 07:12:00,13.0,13.0,-100.00,North,-999,-999.0,-999.0,100,-99.99,,,-99.99,,2013-01-13 15:12:00,
2013-01-13 07:22:00,13.0,13.0,-100.00,North,-999,-999.0,-999.0,100,-99.99,,,-99.99,,2013-01-13 15:22:00,
2013-01-13 07:33:00,11.0,11.0,-100.00,North,-999,-999.0,-999.0,98,-99.99,,,-99.99,,2013-01-13 15:33:00,
2013-01-13 07:43:00,11.0,11.0,-100.00,North,-999,-999.0,-999.0,98,-99.99,,,-99.99,,2013-01-13 15:43:00,
2013-01-13 07:53:00,11.0,11.0,-100.00,North,-999,-999.0,-999.0,98,-99.99,,,-99.99,,2013-01-13 15:53:00,
2013-01-13 08:03:00,11.0,11.0,-100.00,North,-999,-999.0,-999.0,98,-99.99,,,-99.99,,2013-01-13 16:03:00,
2013-01-13 08:12:00,11.0,11.0,-100.00,North,-999,-999.0,-999.0,98,-99.99,,,-99.99,,2013-01-13 16:12:00,
2013-01-13 08:22:00,11.0,11.0,-100.00,North,-999,-999.0,-999.0,98,-99.99,,,-99.99,,2013-01-13 16:22:00,
2013-01-13 14:53:00,45.0,-99.9,-100.00,North,-999,-999.0,-999.0,-999,-99.99,,,-99.99,,2013-01-13 22:53:00,
2013-01-13 15:03:00,45.0,-99.9,-100.00,North,-999,-999.0,-999.0,-999,-99.99,,,-99.99,,2013-01-13 23:03:00,
2013-01-13 15:12:00,45.0,-99.9,-100.00,North,-999,-999.0,-999.0,-999,-99.99,,,-99.99,,2013-01-13 23:12:00,
2013-01-13 15:23:00,45.0,-99.9,-100.00,North,-999,-999.0,-999.0,-999,-99.99,,,-99.99,,2013-01-13 23:23:00,
2013-01-13 15:32:00,45.0,24.0,-100.00,North,-999,-999.0,-999.0,44,-99.99,,,-99.99,,2013-01-13 23:32:00,
2013-01-13 15:43:00,45.0,24.0,-100.00,North,-999,-999.0,-999.0,44,-99.99,,,-99.99,,2013-01-13 23:43:00,
2013-01-13 15:53:00,45.0,24.0,-100.00,North,-999,-999.0,-999.0,44,-99.99,,,-99.99,,2013-01-13 23:53:00,
2013-01-13 16:02:00,43.0,24.0,-100.00,North,-999,-999.0,-999.0,47,-99.99,,,-99.99,,2013-01-14 00:02:00,
2013-01-13 16:12:00,43.0,24.0,-100.00,North,-999,-999.0,-999.0,47,-99.99,,,-99.99,,2013-01-14 00:12:00,
2013-01-13 16:22:00,43.0,24.0,-100.00,North,-999,-999.0,-999.0,47,-99.99,,,-99.99,,2013-01-14 00:22:00,
2013-01-13 16:32:00,44.0,24.0,-100.00,North,-999,-999.0,-999.0,45,-99.99,,,-99.99,,2013-01-14 00:32:00,
2013-01-13 16:43:00,44.0,24.0,-100.00,North,-999,-999.0,-999.0,45,-99.99,,,-99.99,,2013-01-14 00:43:00,
2013-01-13 16:53:00,44.0,24.0,-100.00,North,-999,-999.0,-999.0,45,-99.99,,,-99.99,,2013-01-14 00:53:00,
2013-01-13 17:02:00,38.0,21.0,-100.00,North,-999,-999.0,-999.0,50,-99.99,,,-99.99,,2013-01-14 01:02:00,
2013-01-13 17:12:00,38.0,21.0,-100.00,North,-999,-999.0,-999.0,50,-99.99,,,-99.99,,2013-01-14 01:12:00,
2013-01-13 17:22:00,38.0,21.0,-100.00,North,-999,-999.0,-999.0,50,-99.99,,,-99.99,,2013-01-14 01:22:00,
2013-01-13 17:32:00,38.0,21.0,-100.00,North,-999,-999.0,-999.0,50,-99.99,,,-99.99,,2013-01-14 01:32:00,
2013-01-13 18:02:00,28.0,21.0,-100.00,North,-999,-999.0,-999.0,74,-99.99,,,-99.99,,2013-01-14 02:02:00,
2013-01-13 18:12:00,28.0,21.0,-100.00,North,-999,-999.0,-999.0,74,-99.99,,,-99.99,,2013-01-14 02:12:00,
2013-01-13 18:22:00,28.0,21.0,-100.00,North,-999,-999.0,-999.0,74,-99.99,,,-99.99,,2013-01-14 02:22:00,
2013-01-13 18:32:00,27.0,18.0,-100.00,North,-999,-999.0,-999.0,69,-99.99,,,-99.99,,2013-01-14 02:32:00,
2013-01-13 18:43:00,27.0,18.0,-100.00,North,-999,-999.0,-999.0,69,-99.99,,,-99.99,,2013-01-14 02:43:00,
2013-01-13 18:53:00,27.0,18.0,-100.00,North,-999,-999.0,-999.0,69,-99.99,,,-99.99,,2013-01-14 02:53:00,
2013-01-13 19:02:00,27.0,16.0,-100.00,North,-999,-999.0,-999.0,63,-99.99,,,-99.99,,2013-01-14 03:02:00,
2013-01-13 19:12:00,27.0,16.0,-100.00,North,-999,-999.0,-999.0,63,-99.99,,,-99.99,,2013-01-14 03:12:00,
2013-01-13 19:22:00,27.0,16.0,-100.00,North,-999,-999.0,-999.0,63,-99.99,,,-99.99,,2013-01-14 03:22:00,
2013-01-13 19:32:00,34.0,16.0,-100.00,North,-999,-999.0,-999.0,47,-99.99,,,-99.99,,2013-01-14 03:32:00,
2013-01-13 19:43:00,34.0,16.0,-100.00,North,-999,-999.0,-999.0,47,-99.99,,,-99.99,,2013-01-14 03:43:00,
2013-01-13 19:53:00,34.0,16.0,-100.00,North,-999,-999.0,-999.0,47,-99.99,,,-99.99,,2013-01-14 03:53:00,
2013-01-13 20:02:00,34.0,16.0,-100.00,North,-999,-999.0,-999.0,47,-99.99,,,-99.99,,2013-01-14 04:02:00,
2013-01-13 20:32:00,25.0,15.0,-100.00,North,-999,-999.0,-999.0,66,-99.99,,,-99.99,,2013-01-14 04:32:00,
2013-01-13 20:42:00,25.0,15.0,-100.00,North,-999,-999.0,-999.0,66,-99.99,,,-99.99,,2013-01-14 04:42:00,
2013-01-13 20:53:00,25.0,15.0,-100.00,North,-999,-999.0,-999.0,66,-99.99,,,-99.99,,2013-01-14 04:53:00,
2013-01-13 21:03:00,27.0,18.0,-100.00,North,-999,-999.0,-999.0,67,-99.99,,,-99.99,,2013-01-14 05:03:00,
2013-01-13 21:12:00,27.0,18.0,-100.00,North,-999,-999.0,-999.0,67,-99.99,,,-99.99,,2013-01-14 05:12:00,
2013-01-13 21:22:00,27.0,18.0,-100.00,North,-999,-999.0,-999.0,67,-99.99,,,-99.99,,2013-01-14 05:22:00,
2013-01-13 21:32:00,23.0,17.0,-100.00,North,-999,-999.0,-999.0,79,-99.99,,,-99.99,,2013-01-14 05:32:00,
2013-01-13 21:43:00,23.0,17.0,-100.00,North,-999,-999.0,-999.0,79,-99.99,,,-99.99,,2013-01-14 05:43:00,
2013-01-13 21:52:00,23.0,17.0,-100.00,North,-999,-999.0,-999.0,79,-99.99,,,-99.99,,2013-01-14 05:52:00,
2013-01-13 22:02:00,29.0,14.0,-100.00,North,-999,-999.0,-999.0,54,-99.99,,,-99.99,,2013-01-14 06:02:00,
2013-01-13 22:12:00,29.0,14.0,-100.00,North,-999,-999.0,-999.0,54,-99.99,,,-99.99,,2013-01-14 06:12:00,
2013-01-13 22:22:00,29.0,14.0,-100.00,North,-999,-999.0,-999.0,54,-99.99,,,-99.99,,2013-01-14 06:22:00,
2013-01-13 22:32:00,29.0,14.0,-100.00,North,-999,-999.0,-999.0,54,-99.99,,,-99.99,,2013-01-14 06:32:00,
2013-01-13 22:43:00,29.0,14.0,-100.00,North,-999,-999.0,-999.0,54,-99.99,,,-99.99,,2013-01-14 06:43:00,
2013-01-13 22:52:00,29.0,14.0,-100.00,North,-999,-999.0,-999.0,54,-99.99,,,-99.99,,2013-01-14 06:52:00,
2013-01-13 23:02:00,30.0,13.0,-100.00,North,-999,-999.0,-999.0,49,-99.99,,,-99.99,,2013-01-14 07:02:00,
2013-01-13 23:12:00,30.0,13.0,-100.00,North,-999,-999.0,-999.0,49,-99.99,,,-99.99,,2013-01-14 07:12:00,
2013-01-13 23:22:00,30.0,13.0,-100.00,North,-999,-999.0,-999.0,49,-99.99,,,-99.99,,2013-01-14 07:22:00,
2013-01-13 23:32:00,30.0,10.0,-100.00,North,-999,-999.0,-999.0,43,-99.99,,,-99.99,,2013-01-14 07:32:00,
2013-01-13 23:43:00,30.0,10.0,-100.00,North,-999,-999.0,-999.0,43,-99.99,,,-99.99,,2013-01-14 07:43:00,
2013-01-13 23:52:00,29.0,8.0,-100.00,North,-999,-999.0,-999.0,40,-99.99,,,-99.99,,2013-01-14 07:52:00,